Tracking 25193 objects as of 17-Jan-2022
HD Live streaming from Space Station
objects crossing your sky now

LES 6

Track LES 6 now!
LES 6 is classified as:


NORAD ID: 3431
Int'l Code: 1968-081D
Perigee: 35,763.3 km
Apogee: 35,839.1 km
Inclination: 3.1 °
Period: 1,436.5 minutes
Semi major axis: 42172 km
RCS: 3.1622 m2 (large)
Launch date: September 26, 1968
Source: United States (US)
Launch site: AIR FORCE EASTERN TEST RANGE (AFETR)
aabbcc
Your satellite tracking list
Your tracking list is empty




NASA's NSSDC Master Catalog

Two Line Element Set (TLE):
1 03431U 68081D   22016.42908833 -.00000264  00000-0  00000-0 0  9995
2 03431   3.0735 304.3883 0008980  20.0792 244.4268  1.00245191104610
Source of the keplerian elements: AFSPC